Location: Bluff Heights
(33.7692°N, 118.1592°W)
Time: 18:36:25
(UTC+00:00)

Vanguard 1 Rocket - Pass Details

Date: 01 October 2021
Orbit: 650 x 4225 km, 34.3° (Epoch: 23 October)

Event Time Altitude Azimuth Distance (km) Brightness Sun altitude
Rises 03:47:36 0° 260° (W) 3,006 11.0 -27.6°
Reaches altitude 10° 03:49:50 10° 260° (W) 2,044 10.0 -28.0°
Enters shadow 03:53:06 52° 257° (WSW) 828 7.4 -28.7°
